| time (UTC) | temp F | wind direction | speed MPH | gust MPH | rain 1hr in | rain 24hr in | rain mn in | humidity % | barometer mb |
| 20260905093025 | 58 | 192 | 4.0 | 14.0 | 0.00 | 0.35 | 0.03 | 88 | 1002.3 |
| 20260905091518 | 58 | 153 | 3.0 | 12.0 | 0.00 | 0.35 | 0.03 | 89 | 1002.2 |
| 20260905090014 | 57 | 202 | 4.0 | 12.0 | 0.00 | 0.35 | 0.03 | 92 | 1002.1 |
| 20260905084511 | 56 | 208 | 3.0 | 10.0 | 0.00 | 0.35 | 0.03 | 92 | 1001.8 |
| 20260905083013 | 56 | 196 | 3.0 | 11.0 | 0.00 | 0.35 | 0.03 | 93 | 1001.7 |
| 20260905081508 | 56 | 192 | 3.0 | 11.0 | 0.01 | 0.35 | 0.03 | 91 | 1001.5 |
| 20260905080013 | 56 | 215 | 4.0 | 10.0 | 0.01 | 0.35 | 0.03 | 92 | 1001.4 |
| 20260905074604 | 56 | 178 | 5.0 | 14.0 | 0.02 | 0.35 | 0.03 | 94 | 1001.3 |
| 20260905073058 | 56 | 189 | 4.0 | 11.0 | 0.02 | 0.35 | 0.03 | 94 | 1001.1 |
| 20260905071603 | 55 | 195 | 3.0 | 10.0 | 0.01 | 0.35 | 0.02 | 95 | 1000.9 |
| 20260905070057 | 55 | 178 | 2.0 | 8.0 | 0.01 | 0.35 | 0.02 | 94 | 1001.0 |
| 20260905064601 | 55 | 240 | 2.0 | 8.0 | 0.00 | 0.34 | 0.02 | 94 | 1001.1 |
| 20260905063054 | 55 | 223 | 2.0 | 11.0 | 0.00 | 0.34 | 0.02 | 93 | 1000.9 |
| 20260905061557 | 54 | 257 | 4.0 | 12.0 | 0.00 | 0.34 | 0.02 | 95 | 1000.7 |
| 20260905060057 | 54 | 229 | 4.0 | 12.0 | 0.00 | 0.34 | 0.02 | 96 | 1000.7 |
| 20260905054553 | 54 | 178 | 2.0 | 7.0 | 0.00 | 0.34 | 0.02 | 96 | 1000.7 |
| 20260905053053 | 53 | 206 | 3.0 | 11.0 | 0.00 | 0.34 | 0.02 | 97 | 1000.7 |
| 20260905051553 | 53 | 205 | 2.0 | 9.0 | 0.00 | 0.34 | 0.02 | 97 | 1000.8 |
| 20260905050043 | 53 | 196 | 2.0 | 6.0 | 0.00 | 0.34 | 0.02 | 97 | 1000.7 |
| 20260905044545 | 53 | 213 | 1.0 | 6.0 | 0.00 | 0.34 | 0.02 | 97 | 1000.7 |
| 20260905043053 | 53 | 178 | 1.0 | 5.0 | 0.00 | 0.34 | 0.02 | 97 | 1000.7 |
| 20260905041541 | 53 | 182 | 3.0 | 8.0 | 0.00 | 0.34 | 0.02 | 97 | 1000.5 |
| 20260905040048 | 53 | 167 | 2.0 | 8.0 | 0.00 | 0.34 | 0.02 | 97 | 1000.4 |
| 20260905034541 | 52 | 229 | 2.0 | 7.0 | 0.00 | 0.34 | 0.02 | 97 | 1000.5 |
| 20260905033039 | 53 | 183 | 2.0 | 7.0 | 0.01 | 0.34 | 0.02 | 97 | 1000.5 |
| 20260905031541 | 53 | 198 | 1.0 | 5.0 | 0.01 | 0.34 | 0.02 | 97 | 1000.5 |
| 20260905030036 | 53 | 194 | 2.0 | 9.0 | 0.01 | 0.34 | 0.02 | 97 | 1000.4 |
| 20260905024534 | 53 | 209 | 1.0 | 6.0 | 0.01 | 0.34 | 0.02 | 97 | 1000.4 |
| 20260905023033 | 53 | 216 | 2.0 | 6.0 | 0.00 | 0.33 | 0.01 | 97 | 1000.3 |
| 20260905021542 | 53 | 211 | 2.0 | 6.0 | 0.00 | 0.33 | 0.01 | 97 | 1000.1 |
| 20260905020033 | 53 | 173 | 1.0 | 6.0 | 0.00 | 0.33 | 0.01 | 98 | 1000.1 |
| 20260905014528 | 53 | 183 | 2.0 | 8.0 | 0.00 | 0.33 | 0.01 | 97 | 1000.0 |
| 20260905013027 | 53 | 190 | 3.0 | 9.0 | 0.00 | 0.33 | 0.01 | 98 | 999.8 |
| 20260905011528 | 53 | 230 | 2.0 | 7.0 | 0.00 | 0.33 | 0.01 | 97 | 999.8 |
| 20260905010028 | 53 | 189 | 2.0 | 8.0 | 0.00 | 0.33 | 0.01 | 98 | 999.6 |
| 20260905004531 | 53 | 180 | 2.0 | 8.0 | 0.00 | 0.33 | 0.01 | 98 | 999.4 |
| 20260905003037 | 52 | 183 | 2.0 | 5.0 | 0.00 | 0.33 | 0.01 | 98 | 999.4 |
| 20260905001522 | 52 | 161 | 1.0 | 4.0 | 0.00 | 0.33 | 0.01 | 97 | 999.3 |
| 20260905000022 | 53 | 218 | 0.0 | 4.0 | 0.00 | 0.33 | 0.01 | 98 | 999.2 |
| 20260904234525 | 52 | 182 | 1.0 | 6.0 | 0.00 | 0.33 | 0.01 | 97 | 999.4 |
| 20260904233037 | 53 | 213 | 0.0 | 3.0 | 0.00 | 0.33 | 0.01 | 97 | 999.3 |
| 20260904231522 | 53 | 213 | 0.0 | 4.0 | 0.00 | 0.33 | 0.01 | 97 | 999.4 |
| 20260904230033 | 53 | 209 | 2.0 | 6.0 | 0.01 | 0.33 | 0.01 | 97 | 999.3 |
| 20260904224513 | 54 | 217 | 2.0 | 6.0 | 0.01 | 0.33 | 0.01 | 97 | 999.2 |
| 20260904223014 | 54 | 183 | 2.0 | 6.0 | 0.01 | 0.33 | 0.01 | 97 | 999.2 |
| 20260904221511 | 53 | 194 | 2.0 | 7.0 | 0.01 | 0.33 | 0.01 | 97 | 999.1 |
| 20260904220013 | 53 | 201 | 2.0 | 4.0 | 0.00 | 0.32 | 0.00 | 97 | 998.8 |
| 20260904214508 | 53 | 200 | 1.0 | 6.0 | 0.00 | 0.32 | 0.32 | 97 | 998.7 |
| 20260904213008 | 52 | 186 | 1.0 | 5.0 | 0.00 | 0.32 | 0.32 | 97 | 998.6 |
| 20260904211508 | 52 | 200 | 0.0 | 3.0 | 0.00 | 0.32 | 0.32 | 96 | 998.5 |
| 20260904210005 | 53 | 201 | 0.0 | 2.0 | 0.00 | 0.32 | 0.32 | 96 | 998.5 |
| 20260904204505 | 53 | 177 | 0.0 | 3.0 | 0.00 | 0.32 | 0.32 | 96 | 998.5 |
| 20260904203005 | 53 | 191 | 1.0 | 4.0 | 0.00 | 0.32 | 0.32 | 96 | 998.5 |
| 20260904201504 | 54 | 207 | 0.0 | 2.0 | 0.00 | 0.32 | 0.32 | 96 | 998.6 |
| 20260904200003 | 54 | 233 | 0.0 | 5.0 | 0.00 | 0.32 | 0.32 | 95 | 998.6 |
| 20260904194505 | 54 | 211 | 1.0 | 5.0 | 0.00 | 0.32 | 0.32 | 95 | 998.4 |
| 20260904193002 | 55 | 206 | 1.0 | 5.0 | 0.00 | 0.32 | 0.32 | 95 | 998.3 |
| 20260904191502 | 55 | 225 | 1.0 | 4.0 | 0.00 | 0.32 | 0.32 | 95 | 998.3 |
| 20260904190003 | 55 | 208 | 3.0 | 9.0 | 0.02 | 0.32 | 0.32 | 95 | 998.2 |
| 20260904184501 | 55 | 246 | 0.0 | 6.0 | 0.05 | 0.33 | 0.32 | 95 | 998.1 |
| 20260904183110 | 55 | 184 | 1.0 | 4.0 | 0.05 | 0.33 | 0.32 | 95 | 998.0 |
| 20260904181602 | 56 | 234 | 0.0 | 8.0 | 0.07 | 0.33 | 0.32 | 95 | 997.7 |
| 20260904180106 | 55 | 197 | 1.0 | 5.0 | 0.10 | 0.32 | 0.31 | 95 | 997.5 |
| 20260904174608 | 56 | 196 | 1.0 | 7.0 | 0.12 | 0.31 | 0.28 | 95 | 997.6 |
| 20260904173118 | 57 | 224 | 2.0 | 10.0 | 0.12 | 0.28 | 0.28 | 95 | 997.5 |
| 20260904171607 | 57 | 164 | 4.0 | 10.0 | 0.13 | 0.28 | 0.26 | 96 | 997.4 |
| 20260904170107 | 57 | 183 | 1.0 | 5.0 | 0.13 | 0.23 | 0.21 | 95 | 997.3 |
| 20260904164600 | 57 | 200 | 0.0 | 4.0 | 0.18 | 0.22 | 0.20 | 95 | 997.4 |
| 20260904163056 | 57 | 191 | 0.0 | 5.0 | 0.16 | 0.19 | 0.17 | 94 | 997.3 |
| 20260904161555 | 57 | 178 | 1.0 | 6.0 | 0.13 | 0.16 | 0.13 | 93 | 997.5 |
| 20260904160055 | 58 | 204 | 1.0 | 6.0 | 0.09 | 0.13 | 0.10 | 91 | 997.2 |
| 20260904154554 | 60 | 149 | 1.0 | 7.0 | 0.05 | 0.09 | 0.05 | 90 | 997.3 |
| 20260904153103 | 60 | 217 | 1.0 | 7.0 | 0.01 | 0.05 | 0.01 | 89 | 997.2 |
| 20260904151553 | 60 | 186 | 2.0 | 7.0 | 0.01 | 0.05 | 0.01 | 89 | 997.3 |
| 20260904150055 | 61 | 187 | 1.0 | 7.0 | 0.01 | 0.05 | 0.01 | 89 | 997.3 |
| 20260904144554 | 62 | 184 | 2.0 | 8.0 | 0.00 | 0.09 | 0.00 | 86 | 997.4 |
| 20260904143053 | 63 | 174 | 2.0 | 9.0 | 0.00 | 0.09 | 0.00 | 84 | 997.4 |
| 20260904141553 | 63 | 140 | 3.0 | 7.0 | 0.00 | 0.09 | 0.00 | 83 | 997.5 |
| 20260904140053 | 64 | 186 | 3.0 | 8.0 | 0.00 | 0.09 | 0.00 | 83 | 997.7 |
| 20260904134551 | 64 | 169 | 4.0 | 9.0 | 0.00 | 0.10 | 0.00 | 82 | 997.6 |
| 20260904133049 | 64 | 166 | 3.0 | 8.0 | 0.00 | 0.10 | 0.00 | 80 | 997.7 |
| 20260904131548 | 64 | 182 | 3.0 | 6.0 | 0.00 | 0.10 | 0.00 | 80 | 997.8 |
| 20260904130046 | 64 | 170 | 2.0 | 6.0 | 0.00 | 0.10 | 0.00 | 82 | 998.0 |
| 20260904124556 | 64 | 179 | 2.0 | 5.0 | 0.00 | 0.12 | 0.00 | 79 | 998.1 |
| 20260904123044 | 64 | 171 | 1.0 | 7.0 | 0.00 | 0.12 | 0.00 | 79 | 998.3 |
| 20260904121540 | 64 | 161 | 2.0 | 7.0 | 0.00 | 0.12 | 0.00 | 82 | 998.4 |
| 20260904120045 | 64 | 192 | 2.0 | 8.0 | 0.00 | 0.12 | 0.00 | 82 | 998.6 |
| 20260904114542 | 64 | 152 | 3.0 | 9.0 | 0.00 | 0.12 | 0.00 | 79 | 998.8 |
| 20260904113040 | 63 | 151 | 3.0 | 8.0 | 0.00 | 0.12 | 0.00 | 81 | 998.8 |
| 20260904111533 | 63 | 140 | 4.0 | 8.0 | 0.00 | 0.12 | 0.00 | 79 | 999.0 |
| 20260904110033 | 63 | 148 | 2.0 | 7.0 | 0.00 | 0.12 | 0.00 | 78 | 999.1 |
| 20260904104532 | 62 | 167 | 2.0 | 4.0 | 0.00 | 0.12 | 0.00 | 80 | 999.0 |
| 20260904103037 | 62 | 156 | 1.0 | 4.0 | 0.00 | 0.12 | 0.00 | 80 | 998.8 |
| 20260904101526 | 61 | 124 | 1.0 | 6.0 | 0.00 | 0.12 | 0.00 | 82 | 999.3 |
| 20260904100023 | 61 | 184 | 1.0 | 5.0 | 0.00 | 0.12 | 0.00 | 84 | 999.6 |
| 20260904094521 | 61 | 169 | 1.0 | 3.0 | 0.00 | 0.12 | 0.00 | 85 | 999.5 |